Flag for Brazil Weather past 2 weeks in Cuiabá, Mato Grosso, Brazil

Now
66 °F

Clear.


Feels Like: 66 °F
Forecast: 64 / 95 °F
Wind: 6 mph from North

Location: Cuiaba Aeroporto

Current Time: Jul 28, 2015 at 2:23:05 AM

Latest Report: Jul 28, 2015 at 2:00 AM


Visibility: 10 mi

Pressure: 29.92 "Hg

Humidity: 78%

Dew point: 59 °F

Location of CuiabáLocation

Historic Weather in Cuiabá — Graph

°F

Cuiabá temperature yesterday

Maximum temperature yesterday: 95 °F (at 2:00 PM)
Minimum temperature yesterday: 64 °F (at 6:00 AM)
Average temperature yesterday: 79 °F

Past Weeks' High & Low Weather Summary

 TemperatureHumidityPressure
High95 °F (Jul 27, 2:00 PM)94% (Jul 17, 6:00 AM)30.15 "Hg (Jul 17, 6:00 AM)
Low61 °F (Jul 23, 5:00 AM)19% (Jul 27, 2:00 PM)29.27 "Hg (Jul 18, 5:00 PM)
Average76 °F66%30.01 "Hg
* Reported Jul 13 1:00 AM — Jul 28 1:00 AM, Cuiabá, Weather by CustomWeather, © 2015

Note: Actual official high and low records may vary slightly from our data, if they occured in-between our weather recording intervals... More about our weather records

Advertising

Cuiabá weather history for previous 24 hours

 ConditionsComfort  
Time TempWeatherWind HumidityBarometerVisibility
1:00 AM
Tue, Jul 28
70 °FClear.6 mph69%29.92 "Hg10 mi
12:00 AM72 °FClear.No wind65%29.92 "Hg10 mi
11:00 PM
Mon, Jul 27
73 °FClear.3 mph53%29.95 "Hg10 mi
10:00 PM73 °FClear.3 mph53%29.95 "Hg10 mi
9:00 PM75 °FClear.3 mph54%29.95 "Hg10 mi
8:00 PM81 °FClear.5 mph42%29.92 "Hg10 mi
7:00 PM82 °FClear.2 mph40%29.92 "Hg10 mi
6:00 PM81 °FClear.No wind45%29.89 "Hg10 mi
5:00 PM91 °FSunny.5 mph26%29.89 "Hg10 mi
4:00 PM93 °FSunny.3 mph21%29.86 "Hg10 mi
3:00 PM95 °FSunny.2 mph19%29.89 "Hg10 mi
2:00 PM95 °FSunny.3 mph19%29.89 "Hg10 mi
1:00 PM93 °FSunny.5 mph23%29.92 "Hg10 mi
12:00 PM91 °FPassing clouds.10 mph30%29.95 "HgN/A
11:00 AM90 °FSunny.5 mph38%29.98 "Hg10 mi
10:00 AM84 °FSunny.5 mph51%30.01 "Hg10 mi
9:00 AM79 °FSunny.3 mph61%30.01 "Hg10 mi
8:00 AM72 °FSunny.6 mph78%30.01 "Hg10 mi
7:00 AM66 °FSunny.6 mph88%29.98 "Hg10 mi
6:00 AM64 °FClear.6 mph94%29.95 "Hg10 mi
5:00 AM66 °FPassing clouds.5 mph88%29.95 "HgN/A
4:00 AM68 °FClear.3 mph83%29.95 "Hg10 mi
3:00 AM68 °FClear.2 mph83%29.92 "Hg10 mi
2:00 AM70 °FClear.2 mph83%29.95 "Hg10 mi
Weather by CustomWeather, © 2015

See weather overviewHow to use our weather pages